Regional Weather Roundup
Issued by NWS Upton, NY

Current Version | Previous Version | Text Only | Print | Product List | Glossary On
Versions: 1 2 3 4 5 6 7 8 9 10 11 12 13 14 15 16 17 18 19 20 21 22 23 24 25 26 27 28 29 30 31 32 33 34 35 36 37 38 39 40 41 42 43 44 45 46 47 48 49 50
000
ASUS41 KOKX 280408
RWROKX

REGIONAL WEATHER ROUNDUP
NATIONAL WEATHER SERVICE NEW YORK NY
1200 AM EDT TUE APR 28 2015

NOTE: "FAIR" INDICATES FEW OR NO CLOUDS BELOW 12,000 FEET WITH NO
SIGNIFICANT WEATHER AND/OR OBSTRUCTIONS TO VISIBILITY.

NYZ071-072-176-178-NJZ106-104-280500-
NEW YORK CITY METRO AREA


CITY           SKY/WX    TMP DP  RH WIND       PRES   REMARKS
CENTRAL PARK   MOCLDY    53  34  48 CALM      29.75S
LAGUARDIA APRT MOCLDY    53  36  52 NW10      29.71F
KENNEDY INTL   CLOUDY    55  35  47 N18G25    29.72S
NEWARK/LIBERTY CLOUDY    53  36  52 NW12G22   29.73S
BRNX BOT. GARD   N/A     52  36  54 N9        29.72S
TETERBORO      MOCLDY    52  35  52 NW10      29.72F
$$

NYZ177-179-078>081-280500-
LONG ISLAND NEW YORK

CITY           SKY/WX    TMP DP  RH WIND       PRES   REMARKS
FARMINGDALE    MOCLDY    52  38  58 N10G21    29.70S
ISLIP          PTCLDY    50  39  66 NW15      29.66F
SHIRLEY        CLOUDY    51  39  63 NW13      29.67F
WESTHAMPTON    MOCLDY    51  37  58 N13G22    29.66F
MONTAUK POINT    N/A     49  39  68 NW9       29.64S
$$

NYZ052-065-067-280500-
HUDSON VALLEY

CITY           SKY/WX    TMP DP  RH WIND       PRES   REMARKS
WHITE PLAINS   DRIZZLE   48  38  68 NW12      29.70S
NEWBURGH       PTCLDY    48  41  76 NW12      29.75S
MONTGOMERY     CLOUDY    50  38  63 NW10      29.74R
POUGHKEEPSIE   CLOUDY    51  40  65 NW8       29.73R
ALBANY         CLOUDY    47  42  83 W8        29.76R
$$

NJZ001-105-106-008-010-013-015-019>022-104-280500-
NEW JERSEY

CITY           SKY/WX    TMP DP  RH WIND       PRES   REMARKS
NEWARK/LIBERTY CLOUDY    53  36  52 NW12G22   29.73S
TETERBORO      MOCLDY    52  35  52 NW10      29.72F
CALDWELL       MOCLDY    51  36  56 NW6       29.74F
MORRISTOWN     MOCLDY    54  36  50 NW7       29.75S
SOMERVILLE     MOCLDY    51  34  52 NW8       29.74F
SUSSEX         MOCLDY    50  36  58 N9G20     29.77S
ANDOVER          N/A     48  36  63 N7G17     29.76F
TRENTON        CLOUDY    51  33  50 NW9       29.76S
MILLVILLE      PTCLDY    51  34  52 NW9       29.78S
ATLANTIC CITY  CLOUDY    52  33  48 NW15      29.76R
WRIGHTSTOWN    CLOUDY    51  33  50 N9        29.74S
TOMS RIVER     CLOUDY    52  32  46 NW12G18   29.75S
BELMAR         CLOUDY    52  32  46 NW14      29.73F
$$

PAZ047>061-062-071-280500-
EASTERN PENNSYLVANIA

CITY           SKY/WX    TMP DP  RH WIND       PRES   REMARKS
PHILADELPHIA   CLOUDY    53  33  46 NW10      29.80S
ALLENTOWN      CLOUDY    50  36  58 NW7       29.80S
SCRANTON       CLOUDY    46  38  73 N8G17     29.83S
$$

CTZ002-004>006-009-010-012-RIZ004-006-007-MAZ004-011-015-280500-
SOUTHERN NEW ENGLAND
 IN CT

CITY           SKY/WX    TMP DP  RH WIND       PRES   REMARKS
BRADLEY INTL   PTCLDY    50  38  63 N9        29.67S
HARTFORD       PTCLDY    51  38  60 N12G21    29.67S
DANBURY        CLOUDY    48  39  71 NW9       29.72F
WTRBRY/OXFORD  CLOUDY    46  37  71 NW6       29.70S
BRIDGEPORT     PTCLDY    51  41  68 NW12      29.68S
MERIDEN        CLOUDY    51  39  63 NW12      29.68S
NEW HAVEN      LGT RAIN  51  39  63 N10G24    29.67S
CHESTER        FAIR      50  37  62 N10G18    29.66S
GROTON         CLEAR     51  37  58 N18G24    29.62F
WILLIMANTIC    CLEAR     50  36  58 N15G22    29.65R

 IN RI

CITY           SKY/WX    TMP DP  RH WIND       PRES   REMARKS
PROVIDENCE     CLOUDY    50  38  63 N10       29.62R
BLOCK ISLAND   CLOUDY    48  37  66 NW10G16   29.61F
WESTERLY       PTCLDY    50  38  63 NW10G17   29.63S

 IN MA

CITY           SKY/WX    TMP DP  RH WIND       PRES   REMARKS
BOSTON         LGT RAIN  45  42  89 NE5       29.63R
WORCESTER      CLEAR     46  34  62 NW12      29.63S
WESTFIELD      PTCLDY    49  37  63 N12       29.68R
PROVINCETOWN   CLOUDY   N/A N/A N/A N7        29.60R
NANTUCKET      CLOUDY    44  39  82 NE9       29.58R
$$

ANZ330-335-338-340-345-350-353-355-280500-
COASTAL MARINE OBSERVATIONS


STATION/POSITION TIME  SKY/WX   TEMP    WIND        PRES    VSBY  WAVE
                                AIR SEA DIR/SP/G                  HT/PER
                 (UTC)          (F)     (DEG/KT/KT) (MB)    (MI)  (FT/S)
NY HARB ENTRANCE 0350            51 47  320/ 14/ 16 1005.7          2/ 3
4S FIRE IS       0303               45                N/A           2/ 3
20S FIRE ISLAND  0350            49 44  330/ 14/ 16 1005.1          2/ 4
23SW MTP         0350            47 43  320/ 12/ 12 1003.1          2/ 9
HUDSON CANYON    NOT AVBL
EXECUTION ROCKS  NOT AVBL
WESTERN LI SOUND NOT AVBL
CENTRAL LI SOUND NOT AVBL
EASTERN LI SOUND 0300            50     340/ 12/ 17   N/A
ROBBINS REEF     0300            54     330/ 16/ 24 1005.3
$$


>>>>>>>>>>>>>>>>>>>>>>>>>>>> KEY <<<<<<<<<<<<<<<<<<<<<<<<<<<
>                                                          <
>     SKY/WX - SKY CONDITION/PRESENT WEATHER               <
>     TMP    - TEMPERATURE IN FAHRENHEIT                   <
>     DP     - DEWPOINT IN FAHRENHEIT                      <
>     RH     - RELATIVE HUMIDITY IN PERCENT                <
>     WIND   - DIRECTION AND SPEED IN MPH                  <
>     PRES   - MEAN SEA LEVEL PRESSURE IN INCHES OF HG     <
>     WCI    - WIND CHILL INDEX                            <
>     VSB    - VISIBILITY IN MILES                         <
>     HX     - HEAT INDEX                                  <
>     TC     - TEMPERATURE IN CELSIUS                      <
>     VRB    - VARIABLE WIND DIRECTION                     <
>                                                          <
>>>>>>>>>>>>>>>>>>>>>>>>>>>> KEY <<<<<<<<<<<<<<<<<<<<<<<<<<<




USA.gov is the U.S. government's official web portal to all federal, state and local government web resources and services.